Вернуться в каталог

COSMOS 2251 DEB

АктивенLEO
NORAD 36045·DEBRIS·🇷🇺 Russia

Запущен Jun 16, 1993 с Plesetsk Cosmodrome

Loading…

Ближайшие Пролёты (ближайшие 24 часа)

TLE

УстаревшееSource: Space-Track

Эпоха: Sep 8, 2026, 06:20 UTC

1 36045U 93036AXG 26251.26437041  .00008348  00000-0  11924-2 0  9994
2 36045  73.7587 244.8440 0045716 217.7472 142.0492 14.76110994123589

Отслеживайте COSMOS 2251 DEB в реальном времени с AllMySat

Download on the App Store